Location: Kuffner-Sternwarte
(48.2130°N, 16.2960°E)
Time: 04:35:29
(UTC+02:00)

COROT - Pass Details

Date: 18 May 2018
Orbit: 600 x 889 km, 90.0° (Epoch: 24 May)

Event Time Altitude Azimuth Distance (km) Brightness Sun altitude
Rises 23:54:52 0° 340° (NNW) 2,986 10.6 -20.9°
Reaches altitude 10° 23:59:09 10° 301° (WNW) 2,140 8.9 -21.1°
Maximum altitude 23:59:59 10° 291° (WNW) 2,125 8.7 -21.1°
Drops below altitude 10° 00:00:49 10° 281° (W) 2,168 8.6 -21.2°
Enters shadow 00:05:21 - 242° (WSW) 3,170 9.0 -21.3°
